Regional Weather Roundup
Issued by NWS

Home | Current Version | Previous Version | Text Only | Print | Product List | Glossary Off
Versions: 1 2 3 4 5 6 7 8 9 10 11 12 13 14 15 16 17 18 19 20 21 22 23 24 25 26 27 28 29 30 31 32 33 34 35 36 37 38 39 40 41 42 43 44 45 46 47 48 49 50

000
ASUS43 KTOP 010308
RWRKS

WEATHER ROUNDUP FOR KANSAS
NATIONAL WEATHER SERVICE GOODLAND KS
1000 PM CDT FRI JUL 31 2015

NOTE:  "FAIR" INDICATES FEW OR NO CLOUDS BELOW 12,000 FEET WITH NO
SIGNIFICANT WEATHER AND/OR OBSTRUCTIONS TO VISIBILITY.

KSZ001>006-013>018-027>032-041>047-010400-
NORTHWEST KANSAS

CITY           SKY/WX    TMP DP  RH WIND       PRES   REMARKS
GOODLAND       PTCLDY    77  57  50 S12       30.17R
HAYS           CLEAR     79  61  53 S8        30.11R
HILL CITY      CLEAR     78  61  55 S6        30.10R
RUSSELL        CLEAR     78  65  63 S9        30.09R
$$

KSZ061>065-074>080-084>089-010400-
SOUTHWEST KANSAS

CITY           SKY/WX    TMP DP  RH WIND       PRES   REMARKS
DODGE CITY     PTCLDY    76  66  71 S7        30.15R
ELKHART          N/A     70  63  79 SE7         N/A
GARDEN CITY    PTCLDY    75  67  76 S13       30.16R
GREAT BEND     CLEAR     77  66  69 SE8       30.10R
LIBERAL        CLOUDY    75  64  69 SE6       30.17R
PRATT          MOCLDY    79  70  73 S6        30.13R
$$

KSZ066>073-081>083-090>101-010400-
SOUTHEAST KANSAS

CITY           SKY/WX    TMP DP  RH WIND       PRES   REMARKS
CHANUTE        CLEAR     77  72  84 S7        30.08R
COFFEYVILLE    PTCLDY    77  71  82 S3        30.07S
HUTCHINSON     PTCLDY    76  69  79 CALM      30.10R
MEDICINE LODGE   N/A     80  72  76 SE3       30.08R
NEWTON         CLEAR     79  66  65 S5        30.12R
PARSONS        CLEAR     78  72  81 CALM      30.09R
WICHITA INTL   PTCLDY    82  70  66 SE9       30.08R
WICHITA JABRA  CLEAR     80  73  79 S7        30.09R
WICHITA MCCONL CLEAR     81  73  78 SE7       30.09R
WINFIELD       PTCLDY    78  74  87 S6        30.10R
$$

KSZ007>012-019>026-033>040-048>060-102>105-010400-
NORTHEAST KANSAS

CITY           SKY/WX    TMP DP  RH WIND       PRES   REMARKS
CONCORDIA      MOCLDY    80  70  71 N10       30.09R THUNDER
EMPORIA        CLEAR     79  67  66 SE7       30.08R
LAWRENCE       CLEAR     73  70  90 CALM      30.07R
MANHATTAN      CLEAR     79  72  79 CALM      30.07R
MARYSVILLE     PTCLDY    79  70  73 S3        30.06S
OLATHE IND     CLEAR     77  70  79 S5        30.09R
OLATHE EXE     CLEAR     76  70  82 S3        30.07R
SALINA         CLEAR     81  69  67 SW7       30.08R
TOPEKA BILLARD CLEAR     79  72  79 CALM      30.06R
TOPEKA FORBES  CLEAR     79  70  74 CALM      30.08R
$$


USA.gov is the U.S. government's official web portal to all federal, state and local government web resources and services.